Weather in Yasny

Russia / Zabaykalsky Krai     52°07′36″N   113°29′38″E
temp.,
°C
wind,
m/s
gust,
m/s
humid.,
%
clouds,
%
prec.,
mm/h
press.,
hPa
HPBL,
m
5 december, sun
sun500:00−9wnw1385100 0.0 101354
03:00−4wnw7177297 0.0 1012754
06:00−6nw7167343 0.0 1013652
09:00−6nw8177157 0.0 1015699
12:00−5wnw7157056 0.0 1016990
15:00−4wnw9146229 0.0 10171319
18:00−7wnw8166310 0.0 1020914
21:00−9wnw714742 0.0 1024645
6 december, mon
mon600:00−10wnw512735 0.0 1026455
03:00−10w614755 0.0 1026594
06:00−12w378286 0.0 1026148
09:00−12wsw248550 0.0 102567
12:00−6sw412655 0.0 1021566
15:00−3wsw513595 0.0 1018777
18:00−10sw22846 0.0 102021
21:00−12sw11898 0.0 102213
7 december, tue
tue700:00−12sw118874 0.0 102215
03:00−12w119030 0.0 102314
06:00−13wsw11915 0.0 102411
09:00−13sw11915 0.0 102610
12:00−7s017019 0.0 102569
15:00−3ssw22655 0.0 102278
18:00−10sse01875 0.0 102610
21:00−13n11925 0.0 102710
8 december, wed
wed800:00−14nne1195100 0.0 102710
03:00−14nne1195100 0.0 102512
06:00−15nnw0095100 0.0 102310
09:00−16wnw0096100 0.0 102210
12:00−10sse1179100 0.0 102094
15:00−8s1176100 0.0 101862
18:00−11nw1190100 0.0 102012
21:00−9wnw1187100 0.0 102115
9 december, thu
thu900:00−8wnw3871100 0.0 1021189
03:00−10nw513710 0.0 1024401
06:00−14nw37772 0.0 1027127
09:00−16nw22852 0.0 103128
12:00−11w24640 0.0 1032284
15:00−9w24585 0.0 1030513
18:00−14w1187100 0.0 103310
21:00−16wsw119287 0.0 103510